Weather in Chineta

Russia / Altai Krai     51°20′05″N   83°03′00″E
temp.,
°C
wind,
m/s
gust,
m/s
humid.,
%
clouds,
%
prec.,
mm/h
press.,
hPa
HPBL,
m
17 may, tue
tue1701:00+13sse2262100 0.0 101530
04:00+12s3260100 0.0 101436
07:00+13s336187 0.0 101358
10:00+21ssw24385 0.0 1012986
13:00+23sw333272 0.0 10112749
16:00+23sw343582 0.0 10112363
19:00+22sw24414 0.0 1010466
22:00+16sse32594 0.0 101238
18 may, wed
wed1801:00+14s3459100 0.0 101246
04:00+14s325771 0.0 101236
07:00+15s335999 0.0 101248
10:00+24s23345 0.0 1011637
13:00+26n232865 0.0 10113179
16:00+26nne323353 0.0 10102252
19:00+22ene24475 0.0 1010111
22:00+17sse2255100 0.0 101020
19 may, thu
thu1901:00+16s3259100 0.0 100936
04:00+15s3463100 0.0 100846
07:00+19ssw51346100 0.0 1008558
10:00+23ssw6113983 0.0 10081400
13:00+23sw612445 0.0 10102003
16:00+22wsw6104797 0.4 10111968
19:00+21wsw374293 0.5 10122033
22:00+14sw346892 0.0 101474
20 may, fri
fri2001:00+13s1151100 0.0 101716
04:00+9s337190 0.1 101947
07:00+11s236649 0.1 101961
10:00+17w23291 0.0 10191550
13:00+20nw342599 0.0 10182153
16:00+21nnw33270 0.0 10172011
19:00+19nne22385 0.0 1016806
22:00+12se21575 0.0 101610
21 may, sat
sat2101:00+11se22605 0.0 101519
04:00+9se22634 0.0 101316
07:00+11se22570 0.0 101032
10:00+22sse02271 0.0 1007421
13:00+28nw141880 0.0 10051668
16:00+29sw0519100 0.0 10022501
19:00+25sw2639100 0.0 1002421
22:00+19s41052100 0.0 1003255